Location: Harwich
(41.7160°N, 69.9939°W)
Time: 01:32:29
(UTC+02:00)

AO-85 - Visible Passes

Search period start: 09 July 2025 00:00
Search period end: 19 July 2025 00:00
Orbit: 494 x 713 km, 64.8° (Epoch: 08 July)

Date Brightness Start Highest point End Pass type
(mag) Time Alt. Az. Time Alt. Az. Time Alt. Az.
09 Jul ? 06:16:11 46° E 06:16:11 46° E 06:19:56 10° NE visible
09 Jul ? 07:52:57 18° W 07:55:06 23° NW 07:58:53 10° N visible
10 Jul ? 06:27:39 82° N 06:27:39 82° N 06:32:16 10° NNE visible
10 Jul ? 08:04:53 10° WNW 08:07:42 15° NW 08:10:27 10° N visible
11 Jul ? 05:02:17 18° E 05:02:17 18° E 05:04:12 10° ENE visible
11 Jul ? 06:39:02 44° W 06:39:48 48° NW 06:44:23 10° NNE visible
12 Jul ? 05:13:33 35° E 05:13:33 35° E 05:17:01 10° NE visible
12 Jul ? 06:50:17 22° W 06:52:12 29° NW 06:56:20 10° NNE visible
13 Jul ? 05:24:40 73° SE 05:24:43 73° ESE 05:29:28 10° NE visible
13 Jul ? 07:01:25 10° W 07:04:44 19° NW 07:08:03 10° N visible
14 Jul ? 03:58:53 16° E 03:58:53 16° E 04:00:50 10° ENE visible
14 Jul ? 05:35:36 44° WSW 05:36:57 64° NW 05:41:40 10° NNE visible
14 Jul ? 07:15:25 10° WNW 07:17:22 12° NW 07:19:17 10° NNW visible
15 Jul ? 04:09:33 29° ESE 04:09:50 30° ESE 04:13:58 10° NE visible
15 Jul ? 05:46:15 18° WSW 05:49:18 37° NW 05:53:41 10° NNE visible
16 Jul ? 04:19:45 30° S 04:21:55 53° ESE 04:26:33 10° NE visible
16 Jul ? 05:57:50 10° W 06:01:45 23° NW 06:05:30 10° N visible
17 Jul ? 02:53:18 10° SE 02:55:08 12° ESE 02:56:56 10° E visible
17 Jul ? 04:29:08 10° SSW 04:34:06 85° NW 04:38:51 10° NNE visible
17 Jul ? 06:11:30 10° WNW 06:14:18 15° NW 06:17:02 10° N visible
18 Jul ? 03:03:17 10° SSE 03:07:04 22° ESE 03:10:44 10° ENE visible
18 Jul ? 04:41:36 10° SW 04:46:22 49° NW 04:50:57 10° NNE visible
